TimeEST,TemperatureF,Dew PointF,Humidity,Sea Level PressureIn,VisibilityMPH,Wind Direction,Wind SpeedMPH,Gust SpeedMPH,PrecipitationIn,Events,Conditions,WindDirDegrees,DateUTC
12:54 AM,41.0,24.1,51,29.80,10.0,WNW,4.6,-,N/A,,Overcast,300,2012-02-24 05:54:00
1:54 AM,41.0,23.0,49,29.79,10.0,WNW,4.6,-,N/A,,Overcast,300,2012-02-24 06:54:00
2:54 AM,36.0,25.0,64,29.74,10.0,NNE,6.9,-,N/A,,Overcast,30,2012-02-24 07:54:00
3:54 AM,37.9,25.0,60,29.78,10.0,Calm,Calm,-,N/A,,Overcast,0,2012-02-24 08:54:00
4:54 AM,37.9,24.1,57,29.78,10.0,Calm,Calm,-,N/A,,Overcast,0,2012-02-24 09:54:00
5:54 AM,37.9,25.0,60,29.77,10.0,East,3.5,-,N/A,,Overcast,80,2012-02-24 10:54:00
6:54 AM,39.0,24.1,55,29.77,10.0,ENE,4.6,-,N/A,,Overcast,70,2012-02-24 11:54:00
7:54 AM,37.9,24.1,57,29.79,10.0,ESE,4.6,-,N/A,,Overcast,110,2012-02-24 12:54:00
8:54 AM,37.9,28.9,70,29.78,10.0,SE,12.7,-,N/A,,Overcast,140,2012-02-24 13:54:00
9:54 AM,36.0,30.9,82,29.77,9.0,SE,6.9,-,0.00,Rain-Snow,Light Snow,140,2012-02-24 14:54:00
10:54 AM,37.0,33.1,86,29.75,10.0,SSE,4.6,-,0.01,,Overcast,150,2012-02-24 15:54:00
11:43 AM,37.4,33.8,87,29.73,10.0,Calm,Calm,-,N/A,,Overcast,0,2012-02-24 16:43:00
11:54 AM,37.0,33.1,86,29.71,10.0,East,4.6,-,N/A,,Overcast,100,2012-02-24 16:54:00
12:54 PM,37.9,34.0,86,29.67,10.0,ESE,10.4,-,N/A,,Overcast,110,2012-02-24 17:54:00
1:54 PM,37.4,33.8,87,29.64,10.0,East,10.4,-,N/A,,Overcast,90,2012-02-24 18:54:00
2:54 PM,39.2,35.6,87,29.62,10.0,East,9.2,-,0.00,,Light Drizzle,100,2012-02-24 19:54:00
3:45 PM,39.2,35.6,87,29.59,1.8,East,10.4,-,N/A,Rain,Light Rain,100,2012-02-24 20:45:00
3:54 PM,39.0,37.0,93,29.59,1.5,East,9.2,-,0.02,Rain,Light Rain,100,2012-02-24 20:54:00
4:08 PM,39.2,37.4,93,29.58,1.2,East,13.8,-,0.01,Rain,Light Rain,100,2012-02-24 21:08:00
4:54 PM,39.9,37.9,93,29.56,1.2,East,9.2,-,0.03,Rain,Light Rain,100,2012-02-24 21:54:00
5:23 PM,39.2,37.4,93,29.54,2.0,East,9.2,-,0.01,,Light Drizzle,100,2012-02-24 22:23:00
5:54 PM,39.9,39.0,97,29.52,2.5,East,10.4,-,0.02,Rain,Light Rain,90,2012-02-24 22:54:00
6:54 PM,41.0,39.0,93,29.45,2.0,East,15.0,-,0.01,Rain,Light Rain,100,2012-02-24 23:54:00
7:22 PM,41.0,39.2,93,29.43,3.0,East,13.8,-,0.05,Rain,Light Rain,100,2012-02-25 00:22:00
7:54 PM,41.0,39.9,96,29.37,4.0,East,12.7,-,0.10,Rain,Rain,100,2012-02-25 00:54:00
8:43 PM,41.0,39.2,93,29.33,2.0,ESE,10.4,-,0.07,Rain,Rain,110,2012-02-25 01:43:00
8:54 PM,41.0,39.9,96,29.32,2.0,ESE,9.2,-,0.09,Rain,Heavy Rain,110,2012-02-25 01:54:00
9:04 PM,41.0,39.2,93,29.31,3.0,East,8.1,-,0.04,Rain,Rain,100,2012-02-25 02:04:00
9:41 PM,41.0,39.2,93,29.25,4.0,East,6.9,-,0.08,Rain,Rain,80,2012-02-25 02:41:00
9:54 PM,41.0,39.9,96,29.21,4.0,East,9.2,-,0.10,Rain,Light Rain,80,2012-02-25 02:54:00
10:27 PM,42.8,39.2,87,29.27,4.0,WNW,18.4,26.5,0.04,Rain,Rain,290,2012-02-25 03:27:00
10:31 PM,42.8,39.2,87,29.24,2.5,WNW,15.0,26.5,0.06,Rain,Heavy Rain,300,2012-02-25 03:31:00
10:45 PM,42.8,39.2,87,29.21,6.0,NNW,11.5,-,0.12,Rain,Rain,330,2012-02-25 03:45:00
10:54 PM,42.1,39.9,92,29.21,10.0,NW,9.2,-,0.12,Rain,Light Rain,320,2012-02-25 03:54:00
11:32 PM,42.8,39.2,87,29.20,8.0,WNW,11.5,-,0.03,Rain,Light Rain,300,2012-02-25 04:32:00
11:43 PM,41.0,39.2,93,29.20,10.0,WNW,11.5,-,0.04,Rain,Light Rain,290,2012-02-25 04:43:00
11:54 PM,41.0,37.9,89,29.19,10.0,WNW,13.8,-,0.04,,Overcast,290,2012-02-25 04:54:00